EWG8PJ EDDH-EDDF

Flight info

Callsign EWG8PJ
Flight time N/A
Altitude 30000
Route AMLUH2G/33 AMLUH M852 DENIX DCT RIMET/N0439F310 T157 KOKEB/N0395F230 T157 KERAX KERAX5A
Aircraft A320/M-SDE3FGHIRWY/LB1

Departure

Time N/A
Airport Hamburg Helmut Schmidt Airport (EDDH)

Arrival

Time 2026-04-17 13:46
Airport Frankfurt Main Airport (EDDF)
Time Latitude Longitude Altitude Speed Heading
2026-04-17 13:20 51.99039 10.23130 25701 ft 442 kts 181°
2026-04-17 13:20 51.95963 10.23074 25826 ft 442 kts 181°
2026-04-17 13:21 51.92889 10.23014 25950 ft 441 kts 181°
2026-04-17 13:21 51.89821 10.22956 26075 ft 441 kts 181°
2026-04-17 13:21 51.86752 10.22900 26200 ft 441 kts 181°
2026-04-17 13:21 51.83684 10.22844 26324 ft 440 kts 181°
2026-04-17 13:22 51.80637 10.22786 26447 ft 437 kts 181°
2026-04-17 13:22 51.77594 10.22728 26572 ft 437 kts 181°
2026-04-17 13:22 51.74553 10.22670 26697 ft 437 kts 181°
2026-04-17 13:22 51.71512 10.22612 26930 ft 434 kts 181°
2026-04-17 13:23 51.68525 10.22554 27320 ft 428 kts 181°
2026-04-17 13:23 51.65530 10.22495 27316 ft 433 kts 181°
2026-04-17 13:23 51.62503 10.22439 27316 ft 436 kts 181°
2026-04-17 13:23 51.59458 10.22387 27317 ft 439 kts 181°
2026-04-17 13:24 51.56394 10.22334 27317 ft 442 kts 181°
2026-04-17 13:24 51.53316 10.22279 27317 ft 443 kts 181°
2026-04-17 13:24 51.50237 10.22223 27446 ft 441 kts 181°
2026-04-17 13:24 51.47179 10.22164 27620 ft 439 kts 181°
2026-04-17 13:25 51.44129 10.22106 27794 ft 438 kts 181°
2026-04-17 13:25 51.41083 10.22051 27969 ft 436 kts 181°
2026-04-17 13:25 51.38050 10.21997 28144 ft 435 kts 181°
2026-04-17 13:25 51.35027 10.21943 28318 ft 434 kts 181°
2026-04-17 13:26 51.32010 10.21889 28492 ft 433 kts 181°
2026-04-17 13:26 51.29038 10.21834 28665 ft 432 kts 181°
2026-04-17 13:26 51.26037 10.21779 28840 ft 431 kts 181°
2026-04-17 13:26 51.23042 10.21723 28978 ft 431 kts 181°
2026-04-17 13:27 51.17007 10.21605 29009 ft 437 kts 181°
2026-04-17 13:27 51.10891 10.21492 29009 ft 442 kts 181°
2026-04-17 13:28 51.04707 10.21387 29009 ft 446 kts 181°
2026-04-17 13:28 50.98477 10.21270 29009 ft 449 kts 181°
2026-04-17 13:29 50.92202 10.21151 29009 ft 452 kts 181°
2026-04-17 13:29 50.85881 10.20870 28791 ft 459 kts 189°
2026-04-17 13:30 50.82804 10.19448 28300 ft 469 kts 203°
2026-04-17 13:30 50.79954 10.16695 27025 ft 495 kts 221°
2026-04-17 13:30 50.77575 10.12617 25709 ft 515 kts 231°
2026-04-17 13:30 50.75271 10.08174 24353 ft 528 kts 231°
2026-04-17 13:31 50.72915 10.03684 23594 ft 528 kts 230°
2026-04-17 13:31 50.70543 9.99363 23615 ft 514 kts 227°
2026-04-17 13:31 50.68134 9.95268 23594 ft 506 kts 227°
2026-04-17 13:31 50.65741 9.91238 23491 ft 502 kts 227°
2026-04-17 13:32 50.63348 9.87214 22991 ft 506 kts 227°
2026-04-17 13:32 50.61056 9.83076 22424 ft 510 kts 231°
2026-04-17 13:32 50.58905 9.78621 21887 ft 512 kts 233°
2026-04-17 13:32 50.56791 9.74164 21618 ft 501 kts 233°
2026-04-17 13:33 50.54750 9.69872 21047 ft 480 kts 233°
2026-04-17 13:33 50.52783 9.65739 20474 ft 465 kts 233°
2026-04-17 13:33 50.50871 9.61725 19901 ft 453 kts 233°
2026-04-17 13:33 50.48999 9.57798 19326 ft 445 kts 233°
2026-04-17 13:34 50.47151 9.53925 18750 ft 440 kts 233°
2026-04-17 13:34 50.45325 9.50101 18175 ft 435 kts 233°
2026-04-17 13:34 50.43519 9.46321 17600 ft 431 kts 233°
2026-04-17 13:34 50.41730 9.42579 17025 ft 427 kts 233°
2026-04-17 13:35 50.39945 9.38885 16448 ft 422 kts 231°
2026-04-17 13:35 50.38023 9.35445 15875 ft 418 kts 227°
2026-04-17 13:35 50.35847 9.32488 15300 ft 413 kts 212°
2026-04-17 13:35 50.33224 9.30758 14725 ft 408 kts 193°
2026-04-17 13:36 50.30469 9.30226 14145 ft 388 kts 184°
2026-04-17 13:36 50.27849 9.29941 13573 ft 367 kts 184°
2026-04-17 13:36 50.25367 9.29682 13002 ft 349 kts 184°
2026-04-17 13:36 50.22995 9.29437 12427 ft 334 kts 184°
2026-04-17 13:37 50.20722 9.29204 11853 ft 322 kts 184°
2026-04-17 13:37 50.18526 9.28980 11278 ft 311 kts 184°
2026-04-17 13:37 50.16429 9.28720 10710 ft 302 kts 190°
2026-04-17 13:37 50.14508 9.27544 10133 ft 296 kts 216°
2026-04-17 13:38 50.13132 9.25228 9557 ft 292 kts 241°
2026-04-17 13:38 50.12522 9.22060 8977 ft 321 kts 265°
2026-04-17 13:38 50.12750 9.18610 8397 ft 322 kts 282°
2026-04-17 13:38 50.13279 9.15230 7819 ft 321 kts 284°
2026-04-17 13:39 50.13830 9.11862 7240 ft 320 kts 284°
2026-04-17 13:39 50.14381 9.08509 6663 ft 319 kts 284°
2026-04-17 13:39 50.14927 9.05198 6384 ft 308 kts 284°
2026-04-17 13:39 50.15366 9.02023 6254 ft 292 kts 275°
2026-04-17 13:40 50.15272 8.98950 6081 ft 279 kts 258°
2026-04-17 13:40 50.14696 8.96110 5606 ft 272 kts 249°
2026-04-17 13:40 50.14064 8.93445 5400 ft 251 kts 249°
2026-04-17 13:40 50.13460 8.90881 4933 ft 254 kts 249°
2026-04-17 13:41 50.12850 8.88284 4815 ft 257 kts 250°
2026-04-17 13:41 50.12233 8.85656 4798 ft 261 kts 250°
2026-04-17 13:41 50.11611 8.83016 4526 ft 257 kts 249°
2026-04-17 13:41 50.11000 8.80422 4186 ft 254 kts 249°
2026-04-17 13:42 50.10393 8.77848 3828 ft 251 kts 249°
2026-04-17 13:42 50.09792 8.75305 3473 ft 247 kts 249°
2026-04-17 13:42 50.09215 8.72864 3133 ft 234 kts 249°
2026-04-17 13:42 50.08666 8.70546 2814 ft 223 kts 249°
2026-04-17 13:43 50.08142 8.68337 2507 ft 213 kts 249°
2026-04-17 13:43 50.07651 8.66266 2211 ft 199 kts 249°
2026-04-17 13:43 50.07188 8.64317 1970 ft 183 kts 249°
2026-04-17 13:43 50.06768 8.62551 1721 ft 164 kts 249°
2026-04-17 13:44 50.06398 8.60962 1481 ft 149 kts 250°
2026-04-17 13:44 50.06054 8.59505 1234 ft 140 kts 249°
2026-04-17 13:44 50.05699 8.58136 1109 ft 135 kts 248°
2026-04-17 13:44 50.05411 8.56743 902 ft 134 kts 253°
2026-04-17 13:45 50.05081 8.55414 716 ft 133 kts 246°
2026-04-17 13:45 50.04744 8.54055 518 ft 132 kts 249°
2026-04-17 13:45 50.04430 8.52732 361 ft 126 kts 249°
2026-04-17 13:45 50.04162 8.51618 337 ft 87 kts 249°
2026-04-17 13:46 50.03969 8.51001 329 ft 43 kts 226°
2026-04-17 13:46 50.03854 8.50855 328 ft 11 kts 218°
2026-04-17 13:46 50.03791 8.50853 328 ft 9 kts 136°
2026-04-17 13:46 50.03782 8.50930 329 ft 9 kts 79°
2026-04-17 13:47 50.03826 8.51114 331 ft 21 kts 70°
2026-04-17 13:47 50.03879 8.51334 334 ft 22 kts 69°
2026-04-17 13:47 50.03935 8.51568 336 ft 24 kts 69°
2026-04-17 13:47 50.03995 8.51815 339 ft 25 kts 69°
2026-04-17 13:48 50.04036 8.51992 341 ft 26 kts 69°
2026-04-17 13:48 50.04102 8.52263 343 ft 27 kts 70°
2026-04-17 13:48 50.04167 8.52546 345 ft 29 kts 69°
2026-04-17 13:48 50.04239 8.52843 349 ft 30 kts 70°
2026-04-17 13:49 50.04311 8.53141 355 ft 29 kts 69°
2026-04-17 13:49 50.04380 8.53436 361 ft 29 kts 70°
2026-04-17 13:49 50.04410 8.53758 361 ft 31 kts 84°
2026-04-17 13:49 50.04434 8.54106 361 ft 33 kts 84°
2026-04-17 13:50 50.04456 8.54462 361 ft 34 kts 92°
2026-04-17 13:50 50.04368 8.54717 361 ft 24 kts 134°
2026-04-17 13:50 50.04338 8.54749 361 ft 0 kts 148°
2026-04-17 13:50 50.04285 8.54789 361 ft 21 kts 161°
2026-04-17 13:51 50.04124 8.54879 361 ft 26 kts 160°
2026-04-17 13:51 50.03973 8.54973 361 ft 23 kts 163°
2026-04-17 13:51 50.03848 8.55069 360 ft 18 kts 112°
2026-04-17 13:51 50.03882 8.55253 360 ft 18 kts 70°
2026-04-17 13:52 50.03926 8.55443 360 ft 19 kts 71°
2026-04-17 13:52 50.03973 8.55636 360 ft 20 kts 70°
2026-04-17 13:52 50.04022 8.55839 360 ft 20 kts 69°
2026-04-17 13:52 50.04073 8.56052 360 ft 21 kts 69°
2026-04-17 13:53 50.04126 8.56273 360 ft 22 kts 68°
2026-04-17 13:53 50.04181 8.56503 360 ft 23 kts 69°
2026-04-17 13:53 50.04237 8.56738 361 ft 23 kts 69°
2026-04-17 13:53 50.04294 8.56978 361 ft 24 kts 70°
2026-04-17 13:54 50.04414 8.57483 361 ft 26 kts 69°
2026-04-17 13:54 50.04478 8.57749 361 ft 26 kts 70°
2026-04-17 13:55 50.04617 8.58013 361 ft 14 kts 339°
2026-04-17 13:55 50.04718 8.57954 361 ft 19 kts 340°
2026-04-17 13:55 50.04891 8.57680 361 ft 19 kts 294°
2026-04-17 13:56 50.04956 8.57454 361 ft 7 kts 294°
2026-04-17 13:56 50.04985 8.57409 361 ft 5 kts 336°
2026-04-17 13:56 50.04992 8.57404 361 ft 1 kts 337°
2026-04-17 13:57 50.04999 8.57402 361 ft 1 kts 349°
2026-04-17 13:57 50.05000 8.57403 361 ft 0 kts
2026-04-17 13:57 50.05004 8.57415 361 ft 0 kts 65°
2026-04-17 13:58 50.05004 8.57417 361 ft 0 kts 71°
2026-04-17 13:58 50.05005 8.57429 361 ft 1 kts 81°